Tracking 25693 objects as of 1-Jul-2022
HD Live streaming from Space Station
objects crossing your sky now

DMSP 5D-2 F13 DEB

Track DMSP 5D-2 F13 DEB now!
10-day predictions


NORAD ID: 40569
Int'l Code: 1995-015EC
Perigee: 759.4 km
Apogee: 796.3 km
Inclination: 98.7 °
Period: 100.3 minutes
Semi major axis: 7148 km
RCS: Unknown
Launch date: March 24, 1995
Source: United States (US)
Launch site: AIR FORCE WESTERN TEST RANGE (AFWTR)

Note: This is SATELLITE DEBRIS
aabbcc
Your satellite tracking list
Your tracking list is empty




NASA's NSSDC Master Catalog

Two Line Element Set (TLE):
1 40569U 95015EC  22182.06689326  .00003788  00000-0  13058-2 0  9994
2 40569  98.7198 222.2401 0025817 171.9913 188.1689 14.36299979379891
Source of the keplerian elements: AFSPC